Punta Gorda, FL

12:34 PM EDT on September 27, 2016 (GMT -0400)
Charlotte County

Weather History for KPGD - January, 2013

Change the Weather History Date:

Wednesday, January 16, 2013

  Actual Average Record
Temperature  
Mean Temperature 70 °F -  
Max Temperature 82 °F 71 °F 82 °F (1999)
Min Temperature 59 °F 47 °F 39 °F (2003)
Cooling Degree Days 6    
Growing Degree Days 20 (Base 50)    
Moisture  
Dew Point 61 °F    
Average Humidity 83    
Maximum Humidity 100    
Minimum Humidity 47    
Precipitation  
Precipitation 0.00 in - - ()
Sea Level Pressure  
Sea Level Pressure 30.08 in    
Wind  
Wind Speed 4 mph (SSE)    
Max Wind Speed 12 mph    
Max Gust Speed -    
Visibility 7 miles    
Events      
Averages and records for this station are not official NWS values.
T = Trace of Precipitation, MM = Missing Value Source: NWS Daily Summary

Daily Weather History Graph

Daily Weather History Graph

Search for Another Location

Airport or City:

Trip Planner

Search our weather history database for the weather conditions in past years. The results will help you decide how hot, cold, wet, or windy it might be!

Date:

Astronomy

Jan. 16, 2013 Rise Set
Actual Time 7:18 AM EST 5:57 PM EST
Civil Twilight 6:53 AM EST 6:22 PM EST
Nautical Twilight 6:24 AM EST 6:51 PM EST
Astronomical Twilight 5:56 AM EST 7:19 PM EST
Moon 10:28 AM EST (1/16) 11:10 PM EST (1/16)
Length of Visible Light 11h 29m
Length of Day
10h 39m
Waxing Crescent, 28% of the Moon is Illuminated
Jan 16
Waxing Crescent
Jan 18
First Quarter
Jan 26
Full
Feb 3
Last Quarter
Feb 10
New

Hourly Weather History & Observations

Time (EST) Temp. Heat Index Dew Point Humidity Pressure Visibility Wind Dir Wind Speed Gust Speed Precip Events Conditions
12:53 AM 68.0 °F - 64.9 °F 90% 30.09 in 10.0 mi ESE 3.5 mph - N/A   Overcast
1:53 AM 66.9 °F - 64.0 °F 90% 30.09 in 10.0 mi ENE 3.5 mph - N/A   Overcast
3:35 AM 62.6 °F - 62.6 °F 100% 30.08 in 1.8 mi ENE 3.5 mph - N/A   Clear
3:38 AM 62.6 °F - 62.6 °F 100% 30.08 in 0.8 mi Calm Calm - N/A   Unknown
3:53 AM 62.1 °F - 62.1 °F 100% 30.09 in 0.2 mi Calm Calm - N/A   Unknown
4:15 AM 60.8 °F - 60.8 °F 100% 30.08 in 0.5 mi Calm Calm - N/A   Clear
4:33 AM 60.8 °F - 60.8 °F 100% 30.08 in 0.5 mi Calm Calm - N/A   Unknown
4:53 AM 60.1 °F - 60.1 °F 100% 30.08 in 0.2 mi Calm Calm - N/A   Unknown
5:53 AM 59.0 °F - 57.9 °F 96% 30.08 in 0.5 mi ESE 3.5 mph - N/A   Unknown
6:20 AM 59.0 °F - 57.2 °F 94% 30.08 in 2.0 mi SE 5.8 mph - N/A   Scattered Clouds
6:28 AM 59.0 °F - 57.2 °F 94% 30.08 in 5.0 mi SE 4.6 mph - N/A   Partly Cloudy
6:53 AM 60.1 °F - 59.0 °F 96% 30.09 in 8.0 mi ESE 3.5 mph - N/A   Clear
7:53 AM 63.0 °F - 63.0 °F 100% 30.11 in 6.0 mi ESE 4.6 mph - N/A   Clear
8:53 AM 66.9 °F - 64.9 °F 93% 30.13 in 10.0 mi SE 6.9 mph - N/A   Clear
9:53 AM 75.0 °F - 64.0 °F 69% 30.14 in 10.0 mi South 8.1 mph - N/A   Clear
10:53 AM 78.1 °F - 61.0 °F 56% 30.12 in 10.0 mi South 10.4 mph - N/A   Clear
11:53 AM 81.0 °F 81.3 °F 59.0 °F 47% 30.09 in 10.0 mi SSE 11.5 mph - N/A   Clear
12:53 PM 81.0 °F 81.6 °F 60.1 °F 49% 30.06 in 10.0 mi SSE 8.1 mph - N/A   Scattered Clouds
1:53 PM 82.0 °F 82.4 °F 60.1 °F 47% 30.05 in 10.0 mi WSW 11.5 mph - N/A   Clear
3:53 PM 81.0 °F 81.3 °F 59.0 °F 47% 30.04 in 10.0 mi WSW 10.4 mph - N/A   Clear
4:53 PM 79.0 °F - 59.0 °F 50% 30.05 in 10.0 mi West 9.2 mph - N/A   Clear
5:53 PM 75.9 °F - 61.0 °F 60% 30.06 in 10.0 mi WSW 5.8 mph - N/A   Clear
6:53 PM 72.0 °F - 62.1 °F 71% 30.06 in 10.0 mi Calm Calm - N/A   Clear
7:53 PM 68.0 °F - 64.0 °F 87% 30.08 in 10.0 mi SSW 4.6 mph - N/A   Clear
8:53 PM 66.9 °F - 64.9 °F 93% 30.08 in 10.0 mi Calm Calm - N/A   Partly Cloudy
9:53 PM 64.9 °F - 64.0 °F 97% 30.08 in 10.0 mi South 4.6 mph - N/A   Clear
10:53 PM 64.9 °F - 63.0 °F 93% 30.07 in 10.0 mi SE 4.6 mph - N/A   Scattered Clouds
11:53 PM 64.0 °F - 62.1 °F 93% 30.06 in 10.0 mi Calm Calm - N/A   Mostly Cloudy